Location: Chervonnoye
(48.6000°N, 34.4000°E)
Time: 07:01:33
(UTC+00:00)

Nadezhda 1 Rocket - Pass Details

Date: 23 April 2021
Orbit: 940 x 1006 km, 83.0° (Epoch: 13 May)

Event Time Altitude Azimuth Distance (km) Brightness Sun altitude
Exits shadow 21:00:06 37° 94° (E) 1,510 4.8 -27.9°
Maximum altitude 21:00:26 37° 87° (E) 1,504 4.8 -27.9°
Drops below altitude 10° 21:06:12 10° 23° (NNE) 2,775 7.1 -28.1°
Sets 21:08:53 0° 15° (NNE) 3,721 8.0 -28.2°
